Albion, NE

5:55 AM CST on February 11, 2016 (GMT -0600)
Albion Municipal

Weather History for KBVN - October, 2012

Change the Weather History Date:

Tuesday, October 16, 2012

  Actual Average (KOFK) Record (KOFK)
Temperature  
Mean Temperature 64 °F 51 °F  
Max Temperature 78 °F 64 °F 90 °F (1910)
Min Temperature 50 °F 39 °F 22 °F (1943)
Degree Days  
Heating Degree Days 1 14  
Month to date heating degree days 184  
Since 1 July heating degree days 326  
Cooling Degree Days 0 0  
Month to date cooling degree days 8  
Year to date cooling degree days 914  
Growing Degree Days 14 (Base 50)    
Moisture  
Dew Point 41 °F    
Average Humidity 44    
Maximum Humidity 76    
Minimum Humidity 21    
Precipitation  
Precipitation 0.00 in 0.07 in 2.12 in (1968)
Month to date precipitation 1.22  
Year to date precipitation 24.44  
Snow  
Snow 0.00 in 0.00 in - ()
Month to date snowfall 0.2  
Since 1 July snowfall 0.2  
Snow Depth -    
Sea Level Pressure  
Sea Level Pressure 29.55 in    
Wind  
Wind Speed 9 mph (WSW)    
Max Wind Speed 17 mph    
Max Gust Speed 24 mph    
Visibility 10 miles    
Events      
T = Trace of Precipitation, MM = Missing Value Source: NWS Daily Summary

Daily Weather History Graph

Daily Weather History Graph

Search for Another Location

Airport or City:

Trip Planner

Search our weather history database for the weather conditions in past years. The results will help you decide how hot, cold, wet, or windy it might be!

Date:

Astronomy

Oct. 16, 2012 Rise Set
Actual Time 7:46 AM CDT 6:48 PM CDT
Civil Twilight 7:18 AM CDT 7:16 PM CDT
Nautical Twilight 6:45 AM CDT 7:48 PM CDT
Astronomical Twilight 6:13 AM CDT 8:20 PM CDT
Moon 9:12 AM CDT (10/16) 7:32 PM CDT (10/16)
Length of Visible Light 11h 58m
Length of Day
11h 02m
New Moon, 2% of the Moon is Illuminated
Oct 16
New Moon
Oct 21
First Quarter
Oct 29
Full
Nov 6
Last Quarter
Nov 13
New

Hourly Weather History & Observations

Time (CDT) Temp. Dew Point Humidity Pressure Visibility Wind Dir Wind Speed Gust Speed Precip Events Conditions
12:15 AM 60.1 °F 43.9 °F 55% 29.70 in 10.0 mi South 6.9 mph - N/A   Clear
12:35 AM 60.4 °F 44.4 °F 56% 29.69 in 10.0 mi South 8.1 mph - N/A   Clear
12:55 AM 61.7 °F 44.6 °F 53% 29.68 in 10.0 mi South 9.2 mph - N/A   Clear
1:15 AM 60.8 °F 44.6 °F 55% 29.67 in 10.0 mi South 6.9 mph - N/A   Clear
1:35 AM 60.1 °F 44.6 °F 57% 29.67 in 10.0 mi South 6.9 mph - N/A   Clear
1:55 AM 60.1 °F 44.6 °F 57% 29.65 in 10.0 mi SSE 5.8 mph - N/A   Clear
2:15 AM 58.8 °F 44.6 °F 59% 29.64 in 10.0 mi SSE 4.6 mph - N/A   Clear
2:35 AM 57.6 °F 45.0 °F 63% 29.63 in 10.0 mi South 6.9 mph - N/A   Clear
2:55 AM 58.3 °F 45.0 °F 61% 29.62 in 10.0 mi South 6.9 mph - N/A   Clear
3:15 AM 56.7 °F 45.0 °F 65% 29.61 in 10.0 mi South 5.8 mph - N/A   Clear
3:35 AM 56.3 °F 44.8 °F 65% 29.60 in 10.0 mi South 3.5 mph - N/A   Clear
3:55 AM 55.2 °F 44.8 °F 68% 29.60 in 10.0 mi Calm Calm - N/A   Clear
4:15 AM 56.7 °F 45.0 °F 65% 29.59 in 10.0 mi ENE 3.5 mph - N/A   Clear
4:35 AM 57.6 °F 45.3 °F 64% 29.60 in 10.0 mi West 4.6 mph - N/A   Clear
4:55 AM 56.3 °F 44.8 °F 65% 29.59 in 10.0 mi WSW 3.5 mph - N/A   Scattered Clouds
5:15 AM 53.1 °F 44.2 °F 72% 29.58 in 10.0 mi Calm Calm - N/A   Scattered Clouds
5:35 AM 50.7 °F 43.3 °F 76% 29.59 in 10.0 mi NW 5.8 mph - N/A   Clear
5:55 AM 50.9 °F 41.2 °F 69% 29.58 in 10.0 mi NW 9.2 mph - N/A   Scattered Clouds
6:15 AM 53.4 °F 38.7 °F 57% 29.58 in 10.0 mi NW 12.7 mph - N/A   Scattered Clouds
6:35 AM 53.2 °F 37.4 °F 55% 29.59 in 10.0 mi NNW 15.0 mph - N/A   Scattered Clouds
6:55 AM 53.6 °F 36.5 °F 52% 29.59 in 10.0 mi NNW 16.1 mph 24.2 mph N/A   Clear
7:15 AM 53.6 °F 36.9 °F 53% 29.61 in 10.0 mi NNW 15.0 mph - N/A   Clear
7:55 AM 54.1 °F 39.2 °F 57% 29.62 in 10.0 mi NNW 16.1 mph - N/A   Clear
8:15 AM 55.9 °F 40.1 °F 55% 29.62 in 10.0 mi NNW 16.1 mph 20.7 mph N/A   Clear
8:35 AM 57.6 °F 41.0 °F 54% 29.63 in 10.0 mi NW 13.8 mph - N/A   Clear
8:55 AM 59.2 °F 41.4 °F 52% 29.64 in 10.0 mi NNW 15.0 mph - N/A   Clear
9:15 AM 61.3 °F 41.9 °F 49% 29.64 in 10.0 mi NW 13.8 mph 17.3 mph N/A   Clear
9:35 AM 63.5 °F 42.3 °F 46% 29.65 in 10.0 mi NW 15.0 mph - N/A   Clear
9:55 AM 65.5 °F 42.4 °F 43% 29.65 in 10.0 mi NW 13.8 mph 21.9 mph N/A   Clear
10:15 AM 66.7 °F 42.8 °F 42% 29.64 in 10.0 mi NW 13.8 mph - N/A   Clear
10:35 AM 67.6 °F 42.8 °F 41% 29.64 in 10.0 mi NW 17.3 mph 23.0 mph N/A   Clear
10:55 AM 68.9 °F 43.7 °F 40% 29.64 in 10.0 mi NW 15.0 mph 24.2 mph N/A   Clear
11:15 AM 69.4 °F 44.2 °F 40% 29.64 in 10.0 mi NW 17.3 mph 21.9 mph N/A   Clear
11:35 AM 70.3 °F 44.2 °F 39% 29.63 in 10.0 mi NW 16.1 mph 23.0 mph N/A   Clear
11:55 AM 70.5 °F 43.7 °F 38% 29.62 in 10.0 mi NW 13.8 mph 21.9 mph N/A   Clear
12:15 PM 71.6 °F 42.3 °F 35% 29.62 in 10.0 mi NW 17.3 mph 20.7 mph N/A   Clear
12:35 PM 72.3 °F 42.3 °F 34% 29.60 in 10.0 mi NW 9.2 mph 20.7 mph N/A   Clear
12:55 PM 73.2 °F 42.1 °F 33% 29.59 in 10.0 mi WNW 8.1 mph - N/A   Clear
1:15 PM 74.1 °F 42.1 °F 32% 29.58 in 10.0 mi NW 10.4 mph - N/A   Clear
1:35 PM 74.3 °F 41.4 °F 31% 29.57 in 10.0 mi WNW 13.8 mph 19.6 mph N/A   Clear
1:55 PM 75.2 °F 41.4 °F 30% 29.56 in 10.0 mi WNW 9.2 mph 18.4 mph N/A   Clear
2:15 PM 75.9 °F 41.7 °F 29% 29.54 in 10.0 mi West 10.4 mph 17.3 mph N/A   Clear
2:35 PM 76.5 °F 40.1 °F 27% 29.53 in 10.0 mi WNW 15.0 mph - N/A   Clear
2:55 PM 76.5 °F 40.1 °F 27% 29.52 in 10.0 mi West 11.5 mph 17.3 mph N/A   Clear
3:15 PM 77.5 °F 39.0 °F 25% 29.51 in 10.0 mi West 12.7 mph 19.6 mph N/A   Clear
3:35 PM 77.2 °F 37.6 °F 24% 29.50 in 10.0 mi West 12.7 mph 17.3 mph N/A   Clear
3:55 PM 78.1 °F 35.2 °F 21% 29.50 in 10.0 mi West 11.5 mph 19.6 mph N/A   Clear
4:15 PM 78.1 °F 35.8 °F 22% 29.50 in 10.0 mi West 12.7 mph - N/A   Clear
4:35 PM 78.1 °F 35.4 °F 21% 29.49 in 10.0 mi West 8.1 mph 16.1 mph N/A   Clear
4:55 PM 77.9 °F 35.1 °F 21% 29.48 in 10.0 mi West 6.9 mph - N/A   Clear
5:15 PM 76.1 °F 35.1 °F 23% 29.48 in 10.0 mi West 4.6 mph - N/A   Clear
5:35 PM 75.4 °F 35.6 °F 24% 29.47 in 10.0 mi WSW 3.5 mph - N/A   Clear
5:55 PM 74.7 °F 36.3 °F 25% 29.46 in 10.0 mi SW 4.6 mph - N/A   Clear
6:15 PM 73.4 °F 36.7 °F 26% 29.46 in 10.0 mi SW 3.5 mph - N/A   Clear
6:35 PM 69.3 °F 37.6 °F 31% 29.45 in 10.0 mi South 3.5 mph - N/A   Clear
6:55 PM 67.5 °F 36.7 °F 32% 29.45 in 10.0 mi South 3.5 mph - N/A   Clear
7:15 PM 63.9 °F 37.4 °F 38% 29.44 in 10.0 mi SE 3.5 mph - N/A   Scattered Clouds
7:35 PM 62.6 °F 38.1 °F 40% 29.44 in 10.0 mi SE 3.5 mph - N/A   Scattered Clouds
7:55 PM 62.4 °F 37.8 °F 40% 29.44 in 10.0 mi SSE 3.5 mph - N/A   Clear
8:15 PM 62.6 °F 38.3 °F 41% 29.43 in 10.0 mi SSE 3.5 mph - N/A   Clear
8:35 PM 63.1 °F 39.2 °F 41% 29.42 in 10.0 mi South 4.6 mph - N/A   Clear
8:55 PM 66.4 °F 37.9 °F 35% 29.41 in 10.0 mi South 8.1 mph - N/A   Clear
9:15 PM 66.4 °F 38.1 °F 35% 29.40 in 10.0 mi South 5.8 mph - N/A   Clear
9:35 PM 64.0 °F 39.0 °F 40% 29.40 in 10.0 mi South 4.6 mph - N/A   Clear
9:55 PM 64.9 °F 39.2 °F 39% 29.39 in 10.0 mi South 6.9 mph - N/A   Clear
10:35 PM 65.3 °F 39.6 °F 39% 29.37 in 10.0 mi South 8.1 mph - N/A   Scattered Clouds
10:55 PM 65.3 °F 39.2 °F 38% 29.37 in 10.0 mi South 9.2 mph - N/A   Scattered Clouds
11:15 PM 63.7 °F 39.6 °F 41% 29.37 in 10.0 mi South 8.1 mph - N/A   Scattered Clouds
11:35 PM 63.9 °F 39.6 °F 41% 29.37 in 10.0 mi South 6.9 mph - N/A   Scattered Clouds
11:55 PM 63.9 °F 39.6 °F 41% 29.36 in 10.0 mi South 9.2 mph - N/A   Clear